When you browse on this site, cookies collect data to enhance your experience and personalize the content and advertising you see.
Visit our Privacy Policy to learn more. By continuing to use the site, you agree to this use of cookies and data.
  • In United Kingdom
  • List of Countries
  • For 7 days
  • Water Temperature
  • Satellite Maps
  • Weather Map
  • Weather Widgets
  • user-avatar
    Login

    Hourly Weather Uz

    Today, 24 January, Thursday

    Time Temperature Precipitation Wind Pressure Humidity
    00:00 0°C° 0 mm 3 mps 704 mmHg 50%
    01:00 0°C° 0 mm 3 mps 704 mmHg 50%
    02:00 0°C° 0 mm 3 mps 705 mmHg 50%
    03:00 0°C° 0 mm 3 mps 705 mmHg 51%
    04:00 0°C° 0 mm 3 mps 705 mmHg 51%
    05:00 0°C° 0 mm 3 mps 706 mmHg 51%
    06:00 0°C° 0 mm 3 mps 706 mmHg 51%
    07:00 0°C° 0 mm 3 mps 706 mmHg 52%
    08:00 +2°C° 0 mm 3 mps 707 mmHg 50%
    09:00 +4°C° 0 mm 2 mps 707 mmHg 48%
    10:00 +6°C° 0 mm 2 mps 708 mmHg 46%
    11:00 +6°C° 0 mm 2 mps 707 mmHg 45%
    12:00 +8°C° 0 mm 1 mps 707 mmHg 43%
    13:00 +8°C° 0 mm 1 mps 707 mmHg 41%
    14:00 +8°C° 0 mm 1 mps 707 mmHg 44%
    15:00 +7°C° 0 mm 1 mps 707 mmHg 47%
    16:00 +6°C° 0 mm 1 mps 706 mmHg 50%
    17:00 +4°C° 0 mm 2 mps 707 mmHg 51%
    18:00 +2°C° 0 mm 3 mps 707 mmHg 52%
    19:00 +2°C° 0 mm 3 mps 707 mmHg 53%
    20:00 +1°C° 0 mm 3 mps 707 mmHg 52%
    21:00 +1°C° 0 mm 3 mps 707 mmHg 51%
    22:00 +1°C° 0 mm 3 mps 706 mmHg 50%
    23:00 +1°C° 0 mm 3 mps 706 mmHg 49%

    Tomorrow, 25 January, Friday

    Time Temperature Precipitation Wind Pressure Humidity
    00:00 +1°C° 0 mm 3 mps 706 mmHg 48%
    01:00 +1°C° 0 mm 3 mps 706 mmHg 47%
    02:00 +1°C° 0 mm 3 mps 705 mmHg 46%
    03:00 0°C° 0 mm 3 mps 705 mmHg 45%
    04:00 0°C° 0 mm 3 mps 705 mmHg 44%
    05:00 0°C° 0 mm 3 mps 705 mmHg 43%
    06:00 0°C° 0 mm 3 mps 705 mmHg 43%
    07:00 0°C° 0 mm 3 mps 705 mmHg 42%
    08:00 +3°C° 0 mm 2 mps 705 mmHg 40%
    09:00 +5°C° 0 mm 2 mps 705 mmHg 38%
    10:00 +8°C° 0 mm 1 mps 705 mmHg 36%
    11:00 +9°C° 0 mm 1 mps 705 mmHg 34%
    12:00 +9°C° 0 mm 1 mps 704 mmHg 33%
    13:00 +10°C° 0 mm 1 mps 704 mmHg 32%
    14:00 +9°C° 0 mm 1 mps 703 mmHg 35%
    15:00 +8°C° 0 mm 1 mps 703 mmHg 38%
    16:00 +8°C° 0 mm 1 mps 703 mmHg 41%
    17:00 +6°C° 0 mm 2 mps 703 mmHg 42%
    18:00 +5°C° 0 mm 2 mps 703 mmHg 44%
    19:00 +3°C° 0 mm 3 mps 703 mmHg 45%
    20:00 +3°C° 0 mm 3 mps 703 mmHg 43%
    21:00 +2°C° 0 mm 3 mps 703 mmHg 41%
    22:00 +2°C° 0 mm 3 mps 703 mmHg 39%
    23:00 +2°C° 0 mm 3 mps 703 mmHg 36%

    Day after tomorrow, 26 January, Saturday

    Time Temperature Precipitation Wind Pressure Humidity
    00:00 +1°C° 0 mm 4 mps 702 mmHg 34%
    01:00 +1°C° 0 mm 4 mps 702 mmHg 31%
    02:00 +1°C° 0 mm 4 mps 702 mmHg 30%
    03:00 +1°C° 0 mm 4 mps 702 mmHg 29%
    04:00 0°C° 0 mm 4 mps 702 mmHg 28%
    05:00 0°C° 0 mm 4 mps 702 mmHg 28%
    06:00 +1°C° 0 mm 4 mps 702 mmHg 28%
    07:00 +1°C° 0 mm 4 mps 702 mmHg 27%
    08:00 +4°C° 0 mm 4 mps 703 mmHg 28%
    09:00 +6°C° 0 mm 4 mps 703 mmHg 28%
    10:00 +8°C° 0 mm 4 mps 704 mmHg 29%
    11:00 +10°C° 0 mm 3 mps 704 mmHg 27%
    12:00 +11°C° 0 mm 3 mps 703 mmHg 26%
    13:00 +12°C° 0 mm 3 mps 703 mmHg 24%
    14:00 +11°C° 0 mm 3 mps 703 mmHg 28%
    15:00 +10°C° 0 mm 3 mps 703 mmHg 31%
    16:00 +9°C° 0 mm 3 mps 703 mmHg 34%
    17:00 +8°C° 0 mm 3 mps 703 mmHg 34%
    18:00 +6°C° 0 mm 4 mps 703 mmHg 35%
    19:00 +5°C° 0 mm 4 mps 703 mmHg 35%
    20:00 +5°C° 0 mm 4 mps 704 mmHg 35%
    21:00 +5°C° 0 mm 4 mps 704 mmHg 35%
    22:00 +4°C° 0 mm 4 mps 704 mmHg 35%
    23:00 +4°C° 0 mm 4 mps 704 mmHg 38%

    27 January, Sunday

    Time Temperature Precipitation Wind Pressure Humidity
    00:00 +4°C° 0 mm 4 mps 704 mmHg 42%
    01:00 +4°C° 0 mm 4 mps 704 mmHg 45%
    02:00 +4°C° 0 mm 4 mps 704 mmHg 47%
    03:00 +4°C° 0 mm 4 mps 704 mmHg 48%
    04:00 +4°C° 0 mm 4 mps 704 mmHg 50%
    05:00 +4°C° 0 mm 4 mps 704 mmHg 50%
    06:00 +4°C° 0 mm 4 mps 704 mmHg 50%
    07:00 +4°C° 0 mm 4 mps 704 mmHg 50%
    08:00 +6°C° 0 mm 4 mps 705 mmHg 46%
    09:00 +7°C° 0 mm 4 mps 705 mmHg 43%
    10:00 +10°C° 0 mm 4 mps 706 mmHg 40%
    11:00 +11°C° 0 mm 3 mps 705 mmHg 39%
    12:00 +11°C° 0 mm 3 mps 705 mmHg 38%
    13:00 +12°C° 0 mm 3 mps 704 mmHg 37%
    14:00 +11°C° 0 mm 3 mps 704 mmHg 39%
    15:00 +11°C° 0 mm 3 mps 704 mmHg 42%
    16:00 +10°C° 0 mm 3 mps 703 mmHg 44%
    17:00 +9°C° 0 mm 3 mps 704 mmHg 45%
    18:00 +7°C° 0 mm 4 mps 704 mmHg 45%
    19:00 +6°C° 0 mm 4 mps 704 mmHg 46%
    20:00 +6°C° 0 mm 5 mps 704 mmHg 44%
    21:00 +6°C° 0 mm 5 mps 703 mmHg 42%
    22:00 +6°C° 0 mm 5 mps 703 mmHg 40%
    23:00 +6°C° 0 mm 5 mps 703 mmHg 39%

    28 January, Monday

    Time Temperature Precipitation Wind Pressure Humidity
    00:00 +6°C° 0 mm 5 mps 703 mmHg 39%
    01:00 +6°C° 0 mm 5 mps 703 mmHg 38%
    02:00 +5°C° 0 mm 6 mps 703 mmHg 38%
    03:00 +5°C° 0 mm 6 mps 703 mmHg 38%
    04:00 +5°C° 0 mm 6 mps 703 mmHg 39%
    05:00 +5°C° 0 mm 6 mps 703 mmHg 39%
    06:00 +5°C° 0 mm 6 mps 703 mmHg 39%
    07:00 +5°C° 0 mm 6 mps 703 mmHg 39%
    08:00 +8°C° 0 mm 6 mps 704 mmHg 37%
    09:00 +10°C° 0 mm 6 mps 704 mmHg 34%
    10:00 +13°C° 0 mm 6 mps 704 mmHg 32%
    11:00 +14°C° 0 mm 6 mps 704 mmHg 32%
    12:00 +14°C° 0 mm 6 mps 703 mmHg 32%
    13:00 +15°C° 0 mm 6 mps 703 mmHg 32%
    14:00 +14°C° 0 mm 6 mps 702 mmHg 33%
    15:00 +13°C° 0 mm 6 mps 702 mmHg 34%
    16:00 +13°C° 0 mm 6 mps 702 mmHg 36%
    17:00 +11°C° 0 mm 6 mps 701 mmHg 34%
    18:00 +10°C° 0 mm 6 mps 701 mmHg 33%
    19:00 +9°C° 0 mm 7 mps 701 mmHg 31%
    20:00 +9°C° 0 mm 7 mps 701 mmHg 31%
    21:00 +9°C° 0 mm 7 mps 701 mmHg 31%
    22:00 +10°C° 0 mm 7 mps 701 mmHg 31%
    23:00 +10°C° 0 mm 6 mps 700 mmHg 34%

    29 January, Tuesday

    Time Temperature Precipitation Wind Pressure Humidity
    00:00 +10°C° 0 mm 6 mps 700 mmHg 36%
    01:00 +10°C° 0 mm 6 mps 700 mmHg 38%
    02:00 +10°C° 0.1 mm 6 mps 700 mmHg 41%
    03:00 +10°C° 0.1 mm 6 mps 699 mmHg 44%
    04:00 +11°C° 0.1 mm 6 mps 699 mmHg 47%
    05:00 +11°C° 0.2 mm 6 mps 699 mmHg 48%
    06:00 +11°C° 0.2 mm 6 mps 699 mmHg 48%
    07:00 +11°C° 0.2 mm 6 mps 699 mmHg 48%
    08:00 +11°C° 0.4 mm 6 mps 699 mmHg 50%
    09:00 +11°C° 0.4 mm 6 mps 699 mmHg 52%
    10:00 +11°C° 0.4 mm 6 mps 699 mmHg 53%
    11:00 +12°C° 0.4 mm 7 mps 698 mmHg 53%
    12:00 +12°C° 0.4 mm 7 mps 698 mmHg 52%
    13:00 +14°C° 0.4 mm 7 mps 697 mmHg 51%
    14:00 +14°C° 0.3 mm 6 mps 697 mmHg 52%
    15:00 +14°C° 0.3 mm 6 mps 697 mmHg 53%
    16:00 +14°C° 0.3 mm 5 mps 696 mmHg 53%
    17:00 +13°C° 0.5 mm 5 mps 696 mmHg 54%
    18:00 +13°C° 0.5 mm 5 mps 696 mmHg 56%
    19:00 +13°C° 0.5 mm 5 mps 696 mmHg 57%
    20:00 +13°C° 0.3 mm 5 mps 696 mmHg 57%
    21:00 +13°C° 0.3 mm 6 mps 696 mmHg 56%
    22:00 +13°C° 0.3 mm 6 mps 696 mmHg 56%
    23:00 +13°C° 0.3 mm 5 mps 695 mmHg 58%
    Show more